When you browse on this site, cookies collect data to enhance your experience and personalize the content and advertising you see.
Visit our Privacy Policy to learn more. By continuing to use the site, you agree to this use of cookies and data.
  • In Österreich
  • Länderverzeichnis
  • Für 7 Tage
  • Wassertemperatur
  • Satellitenkarten
  • Wetterkarte
  • News
  • Widgets
  • user-avatar
    Anmelden

    Stündliche Wetter Megri

    Heute, 27 Juni, Donnerstag

    Zeit Temperatur Niederschläge Wind Luftdruck Luftfeuchtigkeit
    00:00 +20°C° 0 mm 2 m/S 624 mmHg 50%
    01:00 +19°C° 0 mm 2 m/S 624 mmHg 52%
    02:00 +19°C° 0 mm 2 m/S 624 mmHg 54%
    03:00 +18°C° 0 mm 2 m/S 623 mmHg 57%
    04:00 +19°C° 0 mm 2 m/S 624 mmHg 55%
    05:00 +19°C° 0 mm 2 m/S 624 mmHg 54%
    06:00 +19°C° 0 mm 2 m/S 624 mmHg 53%
    07:00 +21°C° 0 mm 2 m/S 624 mmHg 48%
    08:00 +23°C° 0 mm 2 m/S 625 mmHg 43%
    09:00 +25°C° 0 mm 2 m/S 625 mmHg 38%
    10:00 +26°C° 0 mm 2 m/S 625 mmHg 36%
    11:00 +27°C° 0 mm 2 m/S 625 mmHg 34%
    12:00 +28°C° 0 mm 3 m/S 625 mmHg 33%
    13:00 +28°C° 0 mm 3 m/S 625 mmHg 33%
    14:00 +29°C° 0 mm 3 m/S 624 mmHg 33%
    15:00 +29°C° 0 mm 4 m/S 624 mmHg 33%
    16:00 +28°C° 0.1 mm 4 m/S 623 mmHg 38%
    17:00 +26°C° 0.1 mm 4 m/S 623 mmHg 43%
    18:00 +25°C° 0.1 mm 5 m/S 622 mmHg 48%
    19:00 +23°C° 0.1 mm 4 m/S 622 mmHg 52%
    20:00 +21°C° 0.1 mm 3 m/S 622 mmHg 56%
    21:00 +20°C° 0.1 mm 3 m/S 621 mmHg 61%
    22:00 +19°C° 0.1 mm 3 m/S 621 mmHg 61%
    23:00 +19°C° 0.1 mm 3 m/S 621 mmHg 62%

    Morgen, 28 Juni, Freitag

    Zeit Temperatur Niederschläge Wind Luftdruck Luftfeuchtigkeit
    00:00 +18°C° 0.1 mm 3 m/S 621 mmHg 62%
    01:00 +18°C° 0 mm 2 m/S 621 mmHg 63%
    02:00 +18°C° 0 mm 2 m/S 620 mmHg 64%
    03:00 +17°C° 0 mm 2 m/S 620 mmHg 65%
    04:00 +18°C° 0 mm 2 m/S 620 mmHg 63%
    05:00 +18°C° 0 mm 2 m/S 620 mmHg 62%
    06:00 +18°C° 0 mm 2 m/S 620 mmHg 60%
    07:00 +20°C° 0 mm 2 m/S 621 mmHg 54%
    08:00 +23°C° 0 mm 2 m/S 621 mmHg 48%
    09:00 +24°C° 0 mm 2 m/S 621 mmHg 42%
    10:00 +26°C° 0 mm 2 m/S 621 mmHg 40%
    11:00 +27°C° 0 mm 2 m/S 621 mmHg 37%
    12:00 +29°C° 0 mm 2 m/S 621 mmHg 34%
    13:00 +29°C° 0.1 mm 2 m/S 621 mmHg 33%
    14:00 +29°C° 0.1 mm 2 m/S 620 mmHg 31%
    15:00 +30°C° 0.1 mm 2 m/S 620 mmHg 30%
    16:00 +29°C° 0.1 mm 3 m/S 619 mmHg 35%
    17:00 +27°C° 0.1 mm 3 m/S 619 mmHg 40%
    18:00 +26°C° 0.1 mm 3 m/S 618 mmHg 45%
    19:00 +24°C° 0.1 mm 3 m/S 618 mmHg 53%
    20:00 +22°C° 0.1 mm 3 m/S 618 mmHg 60%
    21:00 +20°C° 0.1 mm 3 m/S 618 mmHg 67%
    22:00 +20°C° 0 mm 3 m/S 618 mmHg 66%
    23:00 +19°C° 0 mm 2 m/S 618 mmHg 65%

    übermorgen, 29 Juni, Samstag

    Zeit Temperatur Niederschläge Wind Luftdruck Luftfeuchtigkeit
    00:00 +19°C° 0 mm 2 m/S 617 mmHg 64%
    01:00 +19°C° 0 mm 2 m/S 617 mmHg 66%
    02:00 +19°C° 0 mm 1 m/S 617 mmHg 67%
    03:00 +19°C° 0 mm 1 m/S 616 mmHg 69%
    04:00 +19°C° 0 mm 1 m/S 617 mmHg 67%
    05:00 +20°C° 0 mm 1 m/S 617 mmHg 64%
    06:00 +21°C° 0 mm 1 m/S 617 mmHg 61%
    07:00 +22°C° 0 mm 1 m/S 618 mmHg 54%
    08:00 +24°C° 0 mm 2 m/S 618 mmHg 47%
    09:00 +26°C° 0 mm 2 m/S 619 mmHg 40%
    10:00 +27°C° 0 mm 3 m/S 619 mmHg 36%
    11:00 +28°C° 0 mm 4 m/S 619 mmHg 32%
    12:00 +30°C° 0 mm 5 m/S 619 mmHg 27%
    13:00 +30°C° 0 mm 5 m/S 619 mmHg 24%
    14:00 +32°C° 0 mm 6 m/S 619 mmHg 22%
    15:00 +32°C° 0 mm 6 m/S 619 mmHg 19%
    16:00 +30°C° 0 mm 6 m/S 618 mmHg 22%
    17:00 +29°C° 0 mm 6 m/S 618 mmHg 24%
    18:00 +28°C° 0 mm 6 m/S 618 mmHg 27%
    19:00 +26°C° 0 mm 5 m/S 618 mmHg 33%
    20:00 +25°C° 0 mm 3 m/S 618 mmHg 38%
    21:00 +23°C° 0 mm 2 m/S 618 mmHg 43%
    22:00 +21°C° 0 mm 2 m/S 618 mmHg 51%
    23:00 +19°C° 0 mm 2 m/S 617 mmHg 59%

    30 Juni, Sonntag

    Zeit Temperatur Niederschläge Wind Luftdruck Luftfeuchtigkeit
    00:00 +19°C° 0 mm 1 m/S 617 mmHg 67%
    01:00 +19°C° 0 mm 1 m/S 617 mmHg 70%
    02:00 +18°C° 0 mm 1 m/S 617 mmHg 74%
    03:00 +18°C° 0 mm 1 m/S 617 mmHg 78%
    04:00 +18°C° 0 mm 1 m/S 617 mmHg 79%
    05:00 +17°C° 0 mm 2 m/S 617 mmHg 80%
    06:00 +17°C° 0 mm 2 m/S 617 mmHg 81%
    07:00 +18°C° 0 mm 2 m/S 618 mmHg 74%
    08:00 +20°C° 0 mm 2 m/S 618 mmHg 66%
    09:00 +21°C° 0 mm 2 m/S 619 mmHg 59%
    10:00 +24°C° 0.1 mm 2 m/S 619 mmHg 52%
    11:00 +25°C° 0.1 mm 3 m/S 620 mmHg 45%
    12:00 +27°C° 0.1 mm 3 m/S 620 mmHg 38%
    13:00 +27°C° 0 mm 3 m/S 620 mmHg 34%
    14:00 +28°C° 0 mm 4 m/S 620 mmHg 30%
    15:00 +29°C° 0 mm 4 m/S 619 mmHg 26%
    16:00 +28°C° 0 mm 4 m/S 619 mmHg 30%
    17:00 +26°C° 0 mm 4 m/S 619 mmHg 34%
    18:00 +25°C° 0 mm 5 m/S 618 mmHg 38%
    19:00 +22°C° 0 mm 4 m/S 618 mmHg 45%
    20:00 +20°C° 0 mm 4 m/S 618 mmHg 53%
    21:00 +18°C° 0 mm 4 m/S 618 mmHg 61%
    22:00 +17°C° 0 mm 3 m/S 618 mmHg 67%
    23:00 +16°C° 0 mm 3 m/S 618 mmHg 74%

    1 Juli, Montag

    Zeit Temperatur Niederschläge Wind Luftdruck Luftfeuchtigkeit
    00:00 +16°C° 0 mm 3 m/S 618 mmHg 80%
    01:00 +14°C° 0 mm 3 m/S 618 mmHg 82%
    02:00 +14°C° 0 mm 3 m/S 618 mmHg 85%
    03:00 +14°C° 0 mm 3 m/S 618 mmHg 87%
    04:00 +15°C° 0 mm 2 m/S 618 mmHg 86%
    05:00 +15°C° 0 mm 2 m/S 618 mmHg 85%
    06:00 +15°C° 0 mm 2 m/S 619 mmHg 84%
    07:00 +15°C° 0 mm 2 m/S 619 mmHg 80%
    08:00 +16°C° 0 mm 2 m/S 619 mmHg 76%
    09:00 +17°C° 0 mm 2 m/S 620 mmHg 71%
    10:00 +17°C° 0 mm 3 m/S 620 mmHg 69%
    11:00 +17°C° 0 mm 3 m/S 620 mmHg 67%
    12:00 +18°C° 0 mm 3 m/S 620 mmHg 65%
    13:00 +18°C° 0 mm 3 m/S 620 mmHg 63%
    14:00 +18°C° 0 mm 4 m/S 620 mmHg 62%
    15:00 +18°C° 0 mm 4 m/S 620 mmHg 60%
    16:00 +17°C° 0 mm 4 m/S 619 mmHg 64%
    17:00 +14°C° 0 mm 4 m/S 619 mmHg 67%
    18:00 +13°C° 0 mm 4 m/S 619 mmHg 71%
    19:00 +12°C° 0 mm 4 m/S 620 mmHg 73%
    20:00 +11°C° 0 mm 3 m/S 620 mmHg 75%
    21:00 +11°C° 0 mm 3 m/S 621 mmHg 77%
    22:00 +10°C° 0 mm 3 m/S 621 mmHg 78%
    23:00 +10°C° 0 mm 2 m/S 621 mmHg 79%

    2 Juli, Dienstag

    Zeit Temperatur Niederschläge Wind Luftdruck Luftfeuchtigkeit
    00:00 +10°C° 0 mm 2 m/S 621 mmHg 79%
    01:00 +10°C° 0 mm 2 m/S 622 mmHg 81%
    02:00 +10°C° 0 mm 1 m/S 622 mmHg 82%
    03:00 +10°C° 0 mm 1 m/S 622 mmHg 84%
    04:00 +10°C° 0 mm 1 m/S 623 mmHg 80%
    05:00 +11°C° 0 mm 1 m/S 623 mmHg 77%
    06:00 +11°C° 0 mm 1 m/S 624 mmHg 74%
    07:00 +13°C° 0 mm 1 m/S 624 mmHg 65%
    08:00 +14°C° 0 mm 1 m/S 624 mmHg 56%
    09:00 +16°C° 0 mm 2 m/S 625 mmHg 48%
    10:00 +17°C° 0 mm 2 m/S 625 mmHg 43%
    11:00 +18°C° 0 mm 2 m/S 625 mmHg 39%
    12:00 +20°C° 0 mm 2 m/S 626 mmHg 34%
    13:00 +21°C° 0 mm 2 m/S 625 mmHg 33%
    14:00 +21°C° 0 mm 3 m/S 625 mmHg 31%
    15:00 +22°C° 0 mm 3 m/S 625 mmHg 30%
    16:00 +22°C° 0 mm 3 m/S 625 mmHg 31%
    17:00 +21°C° 0 mm 3 m/S 625 mmHg 33%
    18:00 +21°C° 0 mm 3 m/S 625 mmHg 35%
    19:00 +19°C° 0 mm 3 m/S 625 mmHg 40%
    20:00 +17°C° 0 mm 3 m/S 625 mmHg 45%
    21:00 +15°C° 0 mm 2 m/S 624 mmHg 50%
    22:00 +15°C° 0 mm 2 m/S 624 mmHg 52%
    23:00 +14°C° 0 mm 2 m/S 624 mmHg 54%
    Mehr zeigen